Mount Shasta, CA

7:04 AM PDT on April 23, 2018 (GMT -0700)
Mount Shasta

Weather History for KMHS - June, 2014

Change the Weather History Date:

Thursday, June 5, 2014

  Actual Average Record
Temperature  
Mean Temperature 69 °F 59 °F  
Max Temperature 88 °F 74 °F 94 °F (1977)
Min Temperature 50 °F 44 °F 30 °F (1908)
Degree Days  
Heating Degree Days 0 7  
Month to date heating degree days 5 35  
Since 1 June heating degree days 5 35  
Since 1 July heating degree days 4857 5587  
Cooling Degree Days 4 1  
Month to date cooling degree days 4 5  
Year to date cooling degree days 13 13  
Since 1 June cooling degree days 4 5  
Growing Degree Days 18 (Base 50)    
Moisture  
Dew Point 36 °F    
Average Humidity 30    
Maximum Humidity 54    
Minimum Humidity 17    
Precipitation  
Precipitation 0.00 in 0.05 in 0.78 in (1968)
Month to date precipitation T 0.29  
Year to date precipitation 11.79 25.69  
Sea Level Pressure  
Sea Level Pressure 29.94 in    
Wind  
Wind Speed 4 mph (WNW)    
Max Wind Speed 12 mph    
Max Gust Speed 20 mph    
Visibility 10 miles    
Events      
T = Trace of Precipitation, MM = Missing Value Source: NWS Daily Summary

Daily Weather History Graph

Daily Weather History Graph

Search for Another Location

Airport or City:

Astronomy

Jun. 05, 2014 Rise Set
Actual Time 5:36 AM PDT 8:39 PM PDT
Civil Twilight 5:03 AM PDT 9:12 PM PDT
Nautical Twilight 4:21 AM PDT 9:55 PM PDT
Astronomical Twilight 3:31 AM PDT 10:45 PM PDT
Moon 1:01 PM PDT (6/5) 1:06 AM PDT (6/5)
Length of Visible Light 16h 09m
Length of Day
15h 02m
Waxing Crescent, 49% of the Moon is Illuminated
Jun 5
Waxing Crescent
Jun 5
First Quarter
Jun 12
Full
Jun 19
Last Quarter
Jun 27
New

Hourly Weather History & Observations

Time (PDT) Temp. Dew Point Humidity Pressure Visibility Wind Dir Wind Speed Gust Speed Precip Events Conditions
12:56 AM 64.0 °F 32.0 °F 30% 29.97 in 10.0 mi Variable 6.9 mph - N/A   Clear
1:56 AM 63.0 °F 30.0 °F 29% 29.97 in 10.0 mi Variable 4.6 mph - N/A   Clear
2:56 AM 57.0 °F 32.0 °F 39% 29.98 in 10.0 mi Calm Calm - N/A   Clear
3:56 AM 55.0 °F 33.1 °F 43% 29.98 in 10.0 mi Calm Calm - N/A   Clear
4:56 AM 55.9 °F 33.1 °F 42% 29.99 in 10.0 mi Calm Calm - N/A   Clear
5:56 AM 51.1 °F 35.1 °F 54% 30.00 in 10.0 mi Calm Calm - N/A   Clear
6:56 AM 57.0 °F 37.0 °F 47% 30.00 in 10.0 mi Calm Calm - N/A   Clear
7:56 AM 64.0 °F 39.9 °F 41% 29.99 in 10.0 mi Calm Calm - N/A   Clear
8:56 AM 66.9 °F 37.9 °F 34% 29.99 in 10.0 mi Variable 4.6 mph - N/A   Clear
9:56 AM 72.0 °F 37.9 °F 29% 29.98 in 10.0 mi Variable 5.8 mph - N/A   Clear
10:56 AM 75.0 °F 39.9 °F 28% 29.97 in 10.0 mi Variable 4.6 mph - N/A   Clear
11:56 AM 79.0 °F 41.0 °F 26% 29.95 in 10.0 mi WNW 6.9 mph - N/A   Clear
12:56 PM 81.0 °F 39.0 °F 22% 29.93 in 10.0 mi Variable 6.9 mph - N/A   Clear
1:56 PM 82.9 °F 39.0 °F 21% 29.91 in 10.0 mi Variable 4.6 mph - N/A   Clear
2:56 PM 86.0 °F 37.9 °F 18% 29.89 in 10.0 mi Variable 5.8 mph - N/A   Clear
3:56 PM 86.0 °F 37.0 °F 18% 29.88 in 10.0 mi Variable 6.9 mph - N/A   Clear
4:56 PM 84.9 °F 37.9 °F 19% 29.86 in 10.0 mi North - - N/A   Clear
5:56 PM 82.9 °F 36.0 °F 19% 29.86 in 10.0 mi Variable 4.6 mph - N/A   Clear
6:56 PM 80.1 °F 32.0 °F 17% 29.86 in 10.0 mi Variable 5.8 mph 19.6 mph N/A   Clear
7:56 PM 77.0 °F 34.0 °F 21% 29.87 in 10.0 mi Variable 5.8 mph 18.4 mph N/A   Clear
8:56 PM 72.0 °F 37.0 °F 28% 29.89 in 10.0 mi Variable 6.9 mph - N/A   Clear
9:56 PM 70.0 °F 37.0 °F 30% 29.91 in 10.0 mi Variable 5.8 mph - N/A   Clear
10:56 PM 66.9 °F 33.1 °F 28% 29.93 in 10.0 mi Variable 5.8 mph - N/A   Clear
11:56 PM 66.0 °F 32.0 °F 28% 29.92 in 10.0 mi Variable 6.9 mph - N/A   Clear